EXS9KR EGCC-LGTS

Flight info

Callsign EXS9KR
Flight time N/A
Altitude 35000
Route SANBA N859 HON L15 BIG UL9 KONAN DCT KOK DCT RITAX DCT BANUX DCT BABEG DCT KUMOM DCT VILAK DCT GORPA DCT NIVES DCT MONID DCT AKIKA DCT ENFAR DCT TALAS UN130 ALIKO
Aircraft A321/M-SDE3FGHIRWY/LB1

Departure

Time 2026-05-01 13:52
Airport Manchester Airport (EGCC)

Arrival

Time N/A
Airport Thessaloniki Macedonia International Airport (LGTS)
Time Latitude Longitude Altitude Speed Heading
2026-05-01 13:07 53.36438 -2.27739 247 ft 0 kts 45°
2026-05-01 13:33 53.36421 -2.27768 247 ft 0 kts 45°
2026-05-01 13:33 53.36416 -2.27776 247 ft 3 kts 45°
2026-05-01 13:34 53.36389 -2.27818 247 ft 3 kts 19°
2026-05-01 13:34 53.36354 -2.27831 247 ft 2 kts 336°
2026-05-01 13:35 53.36352 -2.27830 247 ft 0 kts 336°
2026-05-01 13:39 53.36359 -2.27833 247 ft 0 kts 344°
2026-05-01 13:40 53.36361 -2.27834 247 ft 1 kts 344°
2026-05-01 13:40 53.36365 -2.27836 247 ft 2 kts 345°
2026-05-01 13:40 53.36373 -2.27843 247 ft 0 kts 329°
2026-05-01 13:41 53.36375 -2.27846 247 ft 2 kts 329°
2026-05-01 13:42 53.36389 -2.27915 247 ft 10 kts 264°
2026-05-01 13:42 53.36349 -2.28004 247 ft 10 kts 225°
2026-05-01 13:42 53.36286 -2.28063 247 ft 12 kts 197°
2026-05-01 13:42 53.36203 -2.28071 247 ft 12 kts 150°
2026-05-01 13:43 53.36142 -2.27976 247 ft 12 kts 135°
2026-05-01 13:43 53.36084 -2.27881 247 ft 9 kts 143°
2026-05-01 13:43 53.36074 -2.27869 247 ft 6 kts 145°
2026-05-01 13:43 53.36020 -2.27909 247 ft 7 kts 198°
2026-05-01 13:44 53.35975 -2.27878 247 ft 10 kts 145°
2026-05-01 13:44 53.35906 -2.27845 247 ft 9 kts 180°
2026-05-01 13:44 53.35854 -2.27808 247 ft 8 kts 136°
2026-05-01 13:44 53.35795 -2.27701 247 ft 15 kts 132°
2026-05-01 13:45 53.35713 -2.27629 247 ft 11 kts 159°
2026-05-01 13:45 53.35651 -2.27563 247 ft 10 kts 141°
2026-05-01 13:45 53.35637 -2.27544 248 ft 0 kts 141°
2026-05-01 13:46 53.35630 -2.27534 248 ft 6 kts 141°
2026-05-01 13:46 53.35582 -2.27470 255 ft 13 kts 141°
2026-05-01 13:47 53.35482 -2.27336 262 ft 21 kts 140°
2026-05-01 13:47 53.35393 -2.27216 259 ft 15 kts 147°
2026-05-01 13:47 53.35314 -2.27195 255 ft 11 kts 188°
2026-05-01 13:47 53.35246 -2.27218 248 ft 9 kts 191°
2026-05-01 13:48 53.35188 -2.27237 245 ft 2 kts 191°
2026-05-01 13:48 53.35141 -2.27252 243 ft 14 kts 191°
2026-05-01 13:48 53.35036 -2.27291 239 ft 14 kts 201°
2026-05-01 13:48 53.34991 -2.27359 239 ft 0 kts 230°
2026-05-01 13:51 53.34967 -2.27407 239 ft 24 kts 231°
2026-05-01 13:51 53.34703 -2.27955 236 ft 94 kts 231°
2026-05-01 13:51 53.34169 -2.29060 214 ft 147 kts 231°
2026-05-01 13:51 53.33457 -2.30521 500 ft 165 kts 231°
2026-05-01 13:52 53.32738 -2.31995 1179 ft 165 kts 231°
2026-05-01 13:52 53.32022 -2.33512 1806 ft 168 kts 238°
2026-05-01 13:52 53.31777 -2.35430 2278 ft 180 kts 274°
2026-05-01 13:52 53.32276 -2.37472 2433 ft 199 kts 296°
2026-05-01 13:53 53.32946 -2.39579 2564 ft 211 kts 294°
2026-05-01 13:53 53.32733 -2.44392 2923 ft 231 kts 227°
2026-05-01 13:53 53.31401 -2.45918 3214 ft 245 kts 194°
2026-05-01 13:54 53.29686 -2.45922 3815 ft 251 kts 169°
2026-05-01 13:54 53.27956 -2.45330 4517 ft 255 kts 168°
2026-05-01 13:54 53.26294 -2.44346 4943 ft 260 kts 154°
2026-05-01 13:54 53.24690 -2.42908 5706 ft 258 kts 154°
2026-05-01 13:55 53.23124 -2.41506 6481 ft 259 kts 154°
2026-05-01 13:55 53.21539 -2.40091 7216 ft 259 kts 154°
2026-05-01 13:55 53.19953 -2.38689 7910 ft 261 kts 154°
2026-05-01 13:55 53.18386 -2.37310 8571 ft 263 kts 154°
2026-05-01 13:56 53.16745 -2.35871 9275 ft 265 kts 155°
2026-05-01 13:56 53.15111 -2.34452 9952 ft 267 kts 154°